Location: Archemont
(49.1579°N, 1.7598°E)
Time: 10:26:39
(UTC+00:00)

deb Explorer IX - Pass Details

Date: 20 April 2024
Orbit: 513 x 891 km, 38.7° (Epoch: 23 May)

Event Time Altitude Azimuth Distance (km) Brightness Sun altitude
Rises 15:41:13 0° 264° (W) 3,520 ? 30.0°
Reaches altitude 10° 15:44:47 10° 245° (WSW) 2,566 ? 29.5°
Maximum altitude 15:48:29 17° 208° (SSW) 2,099 ? 28.9°
Drops below altitude 10° 15:52:05 10° 170° (S) 2,482 ? 28.3°
Sets 15:55:28 0° 151° (SSE) 3,354 ? 27.8°
